Tracking 25195 objects as of 21-Jan-2022
HD Live streaming from Space Station
objects crossing your sky now

XM-2

Track XM-2 now!
XM-2 is classified as:


NORAD ID: 26724
Int'l Code: 2001-012A
Perigee: 36,108.8 km
Apogee: 36,150.6 km
Inclination: 5.8 °
Period: 1,453.3 minutes
Semi major axis: 42500 km
RCS: 25.1188 m2 (large)
Launch date: March 18, 2001
Source: United States (US)
Launch site: SEA LAUNCH (SEAL)

100 channels of digital music uplinked in the X-band from one or more ground stations.
aabbcc
Your satellite tracking list
Your tracking list is empty




NASA's NSSDC Master Catalog

Two Line Element Set (TLE):
1 26724U 01012A   22020.62126095 -.00000283  00000-0  00000-0 0  9996
2 26724   5.7970  70.7832 0004915  41.1445  17.0508  0.99085270 26308
Source of the keplerian elements: AFSPC